STARLINK-11235 [DTC] (60726 NORAD) Tracking and Keplerian Element Data

This shows tracking and keplerian element data for the satellite.

Feedback or suggestion? Click here.




ElementValue
Catalog60726
NameSTARLINK-11235 [DTC]
Epoch Orbit841
Epoch Day286.82210442
Epoch Year2024
RAAN124.4854
Inclination53.1592
Eccentricity0.0001066
Argument of Perigee106.1926
Mean Anonmoly253.9209
Mean Motion15.69772726
Decay Rate0.00014029
L11 60726U 24152G 24286.82210442 .00014029 00000+0 12015-3 0 9997
L22 60726 53.1592 124.4854 0001066 106.1926 253.9209 15.69772726 8419



Live tracking and technical data element details for STARLINK-11235 [DTC] (NORAD 60726). STARLINK-11235 [DTC] can be tracked NOW for your location showing map with azimuth and elevation plus other details from your city location.







IsCatalogInMostPopularTable: catalog: 60726, numindb: 7
Update: records affected: 1



GetName: 60726 STARLINK-11235 [DTC]

Hit Count: updated at: Fri, 06 Dec 2024 11:24:50 GMT